| time (UTC) | temp C | wind direction | speed KPH | gust KPH | rain 1hr cm | rain 24hr cm | rain mn cm | humidity % | barometer mb |
| 20260502212017 | 16 | 280 | 0.0 | 1.6 | 0.00 | 0.00 | 0.00 | 64 | 1011.8 |
| 20260502211523 | 16 | 280 | 0.0 | 1.6 | 0.00 | 0.00 | 0.00 | 64 | 1011.8 |
| 20260502211009 | 16 | 280 | 0.0 | 1.6 | 0.00 | 0.00 | 0.00 | 63 | 1011.7 |
| 20260502210510 | 16 | 280 | 0.0 | 1.6 | 0.00 | 0.00 | 0.00 | 63 | 1011.7 |
| 20260502210009 | 16 | 280 | 0.0 | 3.2 | 0.00 | 0.00 | 0.00 | 63 | 1011.7 |
| 20260502205510 | 16 | 280 | 0.0 | 3.2 | 0.00 | 0.00 | 0.00 | 62 | 1011.7 |
| 20260502205010 | 16 | 280 | 0.0 | 3.2 | 0.00 | 0.00 | 0.00 | 61 | 1011.7 |
| 20260502204510 | 16 | 280 | 0.0 | 3.2 | 0.00 | 0.00 | 0.00 | 61 | 1011.7 |
| 20260502204012 | 16 | 280 | 0.0 | 3.2 | 0.00 | 0.00 | 0.00 | 61 | 1011.8 |
| 20260502203511 | 16 | 280 | 0.0 | 0.0 | 0.00 | 0.00 | 0.00 | 62 | 1011.7 |
| 20260502203009 | 16 | 280 | 0.0 | 1.6 | 0.00 | 0.00 | 0.00 | 62 | 1011.7 |
| 20260502202509 | 16 | 280 | 0.0 | 1.6 | 0.00 | 0.00 | 0.00 | 62 | 1011.7 |
| 20260502202009 | 16 | 280 | 0.0 | 0.0 | 0.00 | 0.00 | 0.00 | 62 | 1011.8 |
| 20260502201507 | 16 | 280 | 0.0 | 1.6 | 0.00 | 0.00 | 0.00 | 61 | 1011.8 |
| 20260502201009 | 16 | 280 | 0.0 | 3.2 | 0.00 | 0.00 | 0.00 | 60 | 1011.8 |
| 20260502200508 | 17 | 280 | 0.0 | 3.2 | 0.00 | 0.00 | 0.00 | 59 | 1011.8 |
| 20260502200008 | 17 | 280 | 0.0 | 6.4 | 0.00 | 0.00 | 0.00 | 59 | 1011.9 |
| 20260502195511 | 17 | 202 | 0.0 | 6.4 | 0.00 | 0.00 | 0.00 | 59 | 1012.0 |
| 20260502195007 | 17 | 212 | 0.0 | 1.6 | 0.00 | 0.00 | 0.00 | 59 | 1011.9 |
| 20260502194507 | 17 | 212 | 0.0 | 1.6 | 0.00 | 0.00 | 0.00 | 58 | 1012.1 |
| 20260502194012 | 17 | 212 | 0.0 | 3.2 | 0.00 | 0.00 | 0.00 | 56 | 1012.0 |
| 20260502193507 | 17 | 212 | 0.0 | 8.0 | 0.00 | 0.00 | 0.00 | 55 | 1012.1 |
| 20260502193007 | 18 | 212 | 1.6 | 8.0 | 0.00 | 0.00 | 0.00 | 53 | 1012.2 |
| 20260502192509 | 18 | 294 | 1.6 | 6.4 | 0.00 | 0.00 | 0.00 | 53 | 1012.4 |
| 20260502192009 | 18 | 232 | 1.6 | 6.4 | 0.00 | 0.00 | 0.00 | 50 | 1012.3 |
| 20260502191514 | 18 | 238 | 1.6 | 8.0 | 0.00 | 0.00 | 0.00 | 47 | 1012.3 |
| 20260502191011 | 18 | 311 | 1.6 | 8.0 | 0.00 | 0.00 | 0.00 | 45 | 1012.2 |
| 20260502190506 | 18 | 196 | 1.6 | 8.0 | 0.00 | 0.00 | 0.00 | 44 | 1012.2 |
| 20260502190011 | 18 | 274 | 1.6 | 6.4 | 0.00 | 0.00 | 0.00 | 44 | 1012.2 |
| 20260502185507 | 18 | 236 | 1.6 | 4.8 | 0.00 | 0.00 | 0.00 | 44 | 1012.2 |
| 20260502185006 | 19 | 229 | 0.0 | 6.4 | 0.00 | 0.00 | 0.00 | 43 | 1012.1 |
| 20260502184505 | 19 | 238 | 0.0 | 6.4 | 0.00 | 0.00 | 0.00 | 43 | 1012.0 |
| 20260502184005 | 19 | 231 | 1.6 | 6.4 | 0.00 | 0.00 | 0.00 | 42 | 1012.0 |
| 20260502183505 | 19 | 213 | 1.6 | 6.4 | 0.00 | 0.00 | 0.00 | 41 | 1011.9 |
| 20260502183005 | 20 | 268 | 0.0 | 8.0 | 0.00 | 0.00 | 0.00 | 41 | 1012.0 |
| 20260502182505 | 20 | 232 | 1.6 | 8.0 | 0.00 | 0.00 | 0.00 | 40 | 1011.9 |
| 20260502182004 | 20 | 221 | 1.6 | 8.0 | 0.00 | 0.00 | 0.00 | 40 | 1011.9 |
| 20260502181504 | 20 | 221 | 1.6 | 8.0 | 0.00 | 0.00 | 0.00 | 39 | 1011.9 |
| 20260502181008 | 20 | 209 | 1.6 | 8.0 | 0.00 | 0.00 | 0.00 | 38 | 1011.9 |
| 20260502180503 | 20 | 229 | 1.6 | 4.8 | 0.00 | 0.00 | 0.00 | 39 | 1011.8 |
| 20260502170502 | 21 | 206 | 6.4 | 17.7 | 0.00 | 0.00 | 0.00 | 42 | 1011.7 |
| 20260502164102 | 20 | 181 | 8.0 | 17.7 | 0.00 | 0.00 | 0.00 | 44 | 1011.9 |
| 20260502163557 | 21 | 211 | 8.0 | 20.9 | 0.00 | 0.00 | 0.00 | 44 | 1011.9 |
| 20260502163057 | 21 | 166 | 6.4 | 20.9 | 0.00 | 0.00 | 0.00 | 45 | 1012.0 |
| 20260502162557 | 21 | 191 | 8.0 | 22.5 | 0.00 | 0.00 | 0.00 | 45 | 1012.0 |
| 20260502162056 | 21 | 208 | 8.0 | 27.4 | 0.00 | 0.00 | 0.00 | 44 | 1012.1 |
| 20260502161559 | 21 | 227 | 8.0 | 27.4 | 0.00 | 0.00 | 0.00 | 44 | 1012.1 |
| 20260502161056 | 21 | 164 | 9.7 | 24.1 | 0.00 | 0.00 | 0.00 | 43 | 1012.1 |
| 20260502160555 | 22 | 197 | 11.3 | 29.0 | 0.00 | 0.00 | 0.00 | 43 | 1012.2 |
| 20260502152054 | 22 | 198 | 11.3 | 24.1 | 0.00 | 0.00 | 0.00 | 42 | 1012.6 |
| 20260502151558 | 22 | 158 | 9.7 | 30.6 | 0.00 | 0.00 | 0.00 | 42 | 1012.7 |
| 20260502151050 | 22 | 180 | 11.3 | 30.6 | 0.00 | 0.00 | 0.00 | 42 | 1012.7 |
| 20260502150547 | 22 | 228 | 6.4 | 19.3 | 0.00 | 0.00 | 0.00 | 43 | 1012.8 |
| 20260502130533 | 21 | 124 | 9.7 | 19.3 | 0.00 | 0.00 | 0.00 | 45 | 1014.2 |
| 20260502123530 | 21 | 195 | 11.3 | 24.1 | 0.00 | 0.00 | 0.00 | 47 | 1014.6 |
| 20260502123029 | 21 | 212 | 9.7 | 27.4 | 0.00 | 0.00 | 0.00 | 47 | 1014.5 |
| 20260502122529 | 21 | 197 | 12.9 | 27.4 | 0.00 | 0.00 | 0.00 | 47 | 1014.7 |
| 20260502122029 | 21 | 232 | 11.3 | 27.4 | 0.00 | 0.00 | 0.00 | 46 | 1014.6 |
| 20260502121528 | 22 | 190 | 8.0 | 17.7 | 0.00 | 0.00 | 0.00 | 49 | 1014.7 |
| 20260502121027 | 21 | 188 | 4.8 | 16.1 | 0.00 | 0.00 | 0.00 | 50 | 1014.8 |
| 20260502120524 | 21 | 198 | 6.4 | 19.3 | 0.00 | 0.00 | 0.00 | 51 | 1014.9 |
| 20260502115525 | 21 | 170 | 9.7 | 16.1 | 0.00 | 0.00 | 0.00 | 52 | 1015.0 |
| 20260502115021 | 21 | 198 | 6.4 | 14.5 | 0.00 | 0.00 | 0.00 | 52 | 1015.2 |
| 20260502114520 | 20 | 173 | 6.4 | 16.1 | 0.00 | 0.00 | 0.00 | 53 | 1015.2 |
| 20260502114018 | 20 | 161 | 6.4 | 19.3 | 0.00 | 0.00 | 0.00 | 54 | 1015.3 |
| 20260502113519 | 20 | 229 | 12.9 | 19.3 | 0.00 | 0.00 | 0.00 | 54 | 1015.2 |
| 20260502113018 | 20 | 159 | 6.4 | 14.5 | 0.00 | 0.00 | 0.00 | 59 | 1015.3 |
| 20260502112514 | 19 | 203 | 4.8 | 16.1 | 0.00 | 0.00 | 0.00 | 61 | 1015.4 |
| 20260502112013 | 19 | 160 | 4.8 | 16.1 | 0.00 | 0.00 | 0.00 | 61 | 1015.4 |
| 20260502111513 | 19 | 194 | 6.4 | 16.1 | 0.00 | 0.00 | 0.00 | 61 | 1015.5 |
| 20260502111013 | 19 | 190 | 4.8 | 14.5 | 0.00 | 0.00 | 0.00 | 61 | 1015.5 |
| 20260502110512 | 18 | 192 | 4.8 | 14.5 | 0.00 | 0.00 | 0.00 | 62 | 1015.6 |
| 20260502110011 | 18 | 175 | 8.0 | 17.7 | 0.00 | 0.00 | 0.00 | 62 | 1015.7 |
| 20260502105512 | 18 | 155 | 6.4 | 17.7 | 0.00 | 0.00 | 0.00 | 63 | 1015.7 |
| 20260502105011 | 18 | 215 | 6.4 | 16.1 | 0.00 | 0.00 | 0.00 | 62 | 1015.8 |
| 20260502104510 | 18 | 192 | 6.4 | 19.3 | 0.00 | 0.00 | 0.00 | 62 | 1015.7 |
| 20260502104009 | 18 | 160 | 6.4 | 19.3 | 0.00 | 0.00 | 0.00 | 62 | 1015.8 |
| 20260502103508 | 18 | 171 | 4.8 | 16.1 | 0.00 | 0.00 | 0.00 | 64 | 1015.8 |
| 20260502103008 | 18 | 177 | 6.4 | 17.7 | 0.00 | 0.00 | 0.00 | 65 | 1015.9 |
| 20260502102507 | 18 | 130 | 6.4 | 17.7 | 0.00 | 0.00 | 0.00 | 65 | 1015.8 |
| 20260502102006 | 18 | 169 | 4.8 | 14.5 | 0.00 | 0.00 | 0.00 | 65 | 1015.9 |
| 20260502101509 | 18 | 184 | 8.0 | 14.5 | 0.00 | 0.00 | 0.00 | 65 | 1015.9 |
| 20260502101005 | 17 | 169 | 4.8 | 16.1 | 0.00 | 0.00 | 0.00 | 66 | 1016.0 |
| 20260502100503 | 17 | 214 | 6.4 | 17.7 | 0.00 | 0.00 | 0.00 | 66 | 1016.0 |
| 20260502091051 | 18 | 195 | 6.4 | 14.5 | 0.00 | 0.00 | 0.00 | 61 | 1016.5 |
| 20260502090551 | 17 | 274 | 6.4 | 12.9 | 0.00 | 0.00 | 0.00 | 64 | 1016.5 |
| 20260502071520 | 16 | 187 | 6.4 | 14.5 | 0.00 | 0.00 | 0.00 | 68 | 1017.2 |
| 20260502071017 | 15 | 230 | 3.2 | 12.9 | 0.00 | 0.00 | 0.00 | 69 | 1017.2 |
| 20260502070516 | 15 | 253 | 4.8 | 12.9 | 0.00 | 0.00 | 0.00 | 69 | 1017.3 |
| 20260502070022 | 15 | 217 | 4.8 | 16.1 | 0.00 | 0.00 | 0.00 | 69 | 1017.3 |
| 20260502065514 | 15 | 200 | 8.0 | 16.1 | 0.00 | 0.00 | 0.00 | 69 | 1017.4 |
| 20260502065017 | 15 | 267 | 4.8 | 17.7 | 0.00 | 0.00 | 0.00 | 69 | 1017.4 |
| 20260502064525 | 15 | 214 | 1.6 | 16.1 | 0.00 | 0.00 | 0.00 | 70 | 1017.3 |
| 20260502064009 | 15 | 195 | 3.2 | 11.3 | 0.00 | 0.00 | 0.00 | 70 | 1017.4 |
| 20260502063510 | 14 | 199 | 4.8 | 16.1 | 0.00 | 0.00 | 0.00 | 70 | 1017.4 |
| 20260502063010 | 14 | 209 | 4.8 | 16.1 | 0.00 | 0.00 | 0.00 | 71 | 1017.5 |
| 20260502062506 | 14 | 175 | 8.0 | 14.5 | 0.00 | 0.00 | 0.00 | 70 | 1017.5 |
| 20260502062009 | 14 | 178 | 8.0 | 12.9 | 0.00 | 0.00 | 0.00 | 70 | 1017.5 |
| 20260502061503 | 14 | 209 | 4.8 | 11.3 | 0.00 | 0.00 | 0.00 | 71 | 1017.6 |
| 20260502061100 | 14 | 215 | 4.8 | 16.1 | 0.00 | 0.00 | 0.00 | 71 | 1017.6 |
| 20260502060559 | 13 | 212 | 6.4 | 16.1 | 0.00 | 0.00 | 0.00 | 71 | 1017.7 |
| 20260502060111 | 13 | 247 | 6.4 | 12.9 | 0.00 | 0.00 | 0.00 | 71 | 1017.7 |
| 20260502055556 | 13 | 237 | 6.4 | 16.1 | 0.00 | 0.00 | 0.00 | 72 | 1017.8 |
| 20260502055055 | 13 | 169 | 4.8 | 16.1 | 0.00 | 0.00 | 0.00 | 72 | 1017.7 |
| 20260502054553 | 13 | 219 | 4.8 | 16.1 | 0.00 | 0.00 | 0.00 | 73 | 1017.7 |
| 20260502054052 | 13 | 182 | 3.2 | 11.3 | 0.00 | 0.00 | 0.00 | 74 | 1017.8 |
| 20260502053551 | 13 | 150 | 4.8 | 11.3 | 0.00 | 0.00 | 0.00 | 76 | 1017.8 |
| 20260502053058 | 12 | 232 | 1.6 | 8.0 | 0.00 | 0.00 | 0.00 | 77 | 1017.8 |
| 20260502052548 | 12 | 181 | 1.6 | 8.0 | 0.00 | 0.00 | 0.00 | 78 | 1017.9 |
| 20260502052047 | 12 | 192 | 3.2 | 11.3 | 0.00 | 0.00 | 0.00 | 79 | 1017.9 |
| 20260502051556 | 12 | 209 | 4.8 | 8.0 | 0.00 | 0.00 | 0.00 | 80 | 1017.9 |
| 20260502051042 | 11 | 244 | 4.8 | 8.0 | 0.00 | 0.00 | 0.00 | 82 | 1017.9 |
| 20260502050544 | 11 | 223 | 1.6 | 6.4 | 0.00 | 0.00 | 0.00 | 84 | 1018.0 |
| 20260502050041 | 10 | 208 | 1.6 | 6.4 | 0.00 | 0.00 | 0.00 | 86 | 1018.1 |
| 20260502045542 | 10 | 221 | 1.6 | 6.4 | 0.00 | 0.00 | 0.00 | 87 | 1018.1 |
| 20260502045039 | 10 | 188 | 1.6 | 4.8 | 0.00 | 0.00 | 0.00 | 88 | 1018.1 |
| 20260502044541 | 9 | 236 | 0.0 | 3.2 | 0.00 | 0.00 | 0.00 | 88 | 1018.2 |
| 20260502044039 | 8 | 211 | 0.0 | 3.2 | 0.00 | 0.00 | 0.00 | 88 | 1018.2 |
| 20260502043536 | 8 | 211 | 0.0 | 3.2 | 0.00 | 0.00 | 0.00 | 88 | 1018.2 |
| 20260502043036 | 8 | 196 | 0.0 | 4.8 | 0.00 | 0.00 | 0.00 | 88 | 1018.2 |
| 20260502042537 | 8 | 236 | 0.0 | 1.6 | 0.00 | 0.00 | 0.00 | 87 | 1018.3 |
| 20260502042035 | 8 | 236 | 0.0 | 1.6 | 0.00 | 0.00 | 0.00 | 87 | 1018.3 |
| 20260502041537 | 8 | 288 | 0.0 | 3.2 | 0.00 | 0.00 | 0.00 | 86 | 1018.4 |
| 20260502041032 | 8 | 288 | 0.0 | 3.2 | 0.00 | 0.00 | 0.00 | 86 | 1018.4 |
| 20260502040534 | 8 | 288 | 0.0 | 1.6 | 0.00 | 0.00 | 0.00 | 86 | 1018.5 |
| 20260502040031 | 8 | 288 | 0.0 | 1.6 | 0.00 | 0.00 | 0.00 | 85 | 1018.6 |
| 20260502035531 | 8 | 288 | 0.0 | 3.2 | 0.00 | 0.00 | 0.00 | 85 | 1018.6 |
| 20260502035030 | 9 | 296 | 0.0 | 3.2 | 0.00 | 0.00 | 0.00 | 85 | 1018.7 |
| 20260502034532 | 9 | 168 | 0.0 | 1.6 | 0.00 | 0.00 | 0.00 | 84 | 1018.8 |
| 20260502034030 | 9 | 168 | 0.0 | 1.6 | 0.00 | 0.00 | 0.00 | 84 | 1018.8 |
| 20260502033527 | 9 | 168 | 0.0 | 1.6 | 0.00 | 0.00 | 0.00 | 84 | 1019.0 |
| 20260502033029 | 9 | 168 | 0.0 | 4.8 | 0.00 | 0.00 | 0.00 | 84 | 1019.1 |
| 20260502032527 | 9 | 207 | 0.0 | 6.4 | 0.00 | 0.00 | 0.00 | 83 | 1019.0 |
| 20260502032026 | 10 | 228 | 0.0 | 4.8 | 0.00 | 0.00 | 0.00 | 83 | 1019.1 |
| 20260502031526 | 10 | 239 | 1.6 | 8.0 | 0.00 | 0.00 | 0.00 | 83 | 1019.2 |
| 20260502031025 | 10 | 239 | 1.6 | 9.7 | 0.00 | 0.00 | 0.00 | 83 | 1019.2 |
| 20260502030524 | 9 | 223 | 1.6 | 8.0 | 0.00 | 0.00 | 0.00 | 82 | 1019.3 |
| 20260502030024 | 9 | 219 | 0.0 | 4.8 | 0.00 | 0.00 | 0.00 | 81 | 1019.4 |
| 20260502025523 | 10 | 219 | 0.0 | 4.8 | 0.00 | 0.00 | 0.00 | 81 | 1019.4 |
| 20260502025022 | 10 | 200 | 0.0 | 4.8 | 0.00 | 0.00 | 0.00 | 81 | 1019.5 |
| 20260502024522 | 10 | 161 | 0.0 | 6.4 | 0.00 | 0.00 | 0.00 | 81 | 1019.5 |
| 20260502024021 | 10 | 193 | 1.6 | 9.7 | 0.00 | 0.00 | 0.00 | 82 | 1019.6 |
| 20260502023520 | 9 | 211 | 1.6 | 9.7 | 0.00 | 0.00 | 0.00 | 83 | 1019.6 |
| 20260502023019 | 8 | 229 | 0.0 | 11.3 | 0.00 | 0.00 | 0.00 | 84 | 1019.7 |
| 20260502022521 | 8 | 202 | 3.2 | 11.3 | 0.00 | 0.00 | 0.00 | 85 | 1019.7 |
| 20260502022021 | 7 | 179 | 0.0 | 6.4 | 0.00 | 0.00 | 0.00 | 85 | 1019.8 |
| 20260502021518 | 7 | 240 | 0.0 | 3.2 | 0.00 | 0.00 | 0.00 | 85 | 1019.9 |
| 20260502021017 | 7 | 240 | 0.0 | 3.2 | 0.00 | 0.00 | 0.00 | 85 | 1019.9 |
| 20260502020517 | 7 | 248 | 0.0 | 6.4 | 0.00 | 0.00 | 0.00 | 85 | 1020.0 |
| 20260502020020 | 7 | 248 | 0.0 | 6.4 | 0.00 | 0.00 | 0.00 | 85 | 1020.0 |
| 20260502015515 | 7 | 258 | 0.0 | 1.6 | 0.00 | 0.00 | 0.00 | 84 | 1020.1 |
| 20260502015020 | 7 | 258 | 0.0 | 1.6 | 0.00 | 0.00 | 0.00 | 84 | 1020.3 |
| 20260502014513 | 7 | 212 | 0.0 | 1.6 | 0.00 | 0.00 | 0.00 | 84 | 1020.3 |
| 20260502014012 | 7 | 212 | 0.0 | 1.6 | 0.00 | 0.00 | 0.00 | 84 | 1020.4 |
| 20260502013510 | 7 | 212 | 0.0 | 1.6 | 0.00 | 0.00 | 0.00 | 84 | 1020.4 |
| 20260502013010 | 7 | 212 | 0.0 | 0.0 | 0.00 | 0.00 | 0.00 | 84 | 1020.5 |
| 20260502012510 | 7 | 212 | 0.0 | 1.6 | 0.00 | 0.00 | 0.00 | 84 | 1020.6 |
| 20260502012015 | 7 | 212 | 0.0 | 1.6 | 0.00 | 0.00 | 0.00 | 84 | 1020.6 |
| 20260502011533 | 7 | 212 | 0.0 | 1.6 | 0.00 | 0.00 | 0.00 | 84 | 1020.7 |
| 20260502011007 | 7 | 212 | 0.0 | 1.6 | 0.00 | 0.00 | 0.00 | 85 | 1020.8 |
| 20260502010507 | 7 | 212 | 0.0 | 1.6 | 0.00 | 0.00 | 0.00 | 84 | 1020.8 |
| 20260502010007 | 7 | 212 | 0.0 | 0.0 | 0.00 | 0.00 | 0.00 | 85 | 1020.9 |
| 20260502005507 | 7 | 212 | 0.0 | 0.0 | 0.00 | 0.00 | 0.00 | 84 | 1020.9 |
| 20260502005006 | 7 | 212 | 0.0 | 0.0 | 0.00 | 0.00 | 0.00 | 84 | 1020.9 |
| 20260502004506 | 7 | 212 | 0.0 | 1.6 | 0.00 | 0.00 | 0.00 | 85 | 1021.1 |
| 20260502004005 | 7 | 212 | 0.0 | 1.6 | 0.00 | 0.00 | 0.00 | 84 | 1021.1 |
| 20260502003503 | 7 | 212 | 0.0 | 1.6 | 0.00 | 0.00 | 0.00 | 85 | 1021.2 |
| 20260502003005 | 7 | 212 | 0.0 | 1.6 | 0.00 | 0.00 | 0.00 | 85 | 1021.2 |
| 20260502002503 | 7 | 212 | 0.0 | 1.6 | 0.00 | 0.00 | 0.00 | 86 | 1021.2 |
| 20260502002002 | 7 | 212 | 0.0 | 1.6 | 0.00 | 0.00 | 0.00 | 86 | 1021.3 |
| 20260502001506 | 7 | 209 | 0.0 | 1.6 | 0.00 | 0.00 | 0.00 | 86 | 1021.4 |
| 20260502001103 | 7 | 209 | 0.0 | 1.6 | 0.00 | 0.00 | 0.00 | 86 | 1021.5 |
| 20260502000600 | 7 | 209 | 0.0 | 1.6 | 0.00 | 0.00 | 0.00 | 86 | 1021.5 |
| 20260502000114 | 7 | 209 | 0.0 | 1.6 | 0.00 | 0.00 | 0.00 | 86 | 1021.7 |
| 20260501235559 | 7 | 209 | 0.0 | 1.6 | 0.00 | 0.00 | 0.00 | 85 | 1021.6 |
| 20260501235057 | 7 | 209 | 0.0 | 1.6 | 0.00 | 0.00 | 0.00 | 85 | 1021.7 |
| 20260501234557 | 7 | 209 | 0.0 | 1.6 | 0.00 | 0.00 | 0.00 | 84 | 1021.7 |
| 20260501234100 | 7 | 209 | 0.0 | 1.6 | 0.00 | 0.00 | 0.00 | 83 | 1021.8 |
| 20260501233554 | 7 | 209 | 0.0 | 1.6 | 0.00 | 0.00 | 0.00 | 82 | 1021.8 |
| 20260501233054 | 7 | 209 | 0.0 | 1.6 | 0.00 | 0.00 | 0.00 | 81 | 1021.9 |
| 20260501232551 | 7 | 209 | 0.0 | 1.6 | 0.00 | 0.00 | 0.00 | 80 | 1022.0 |
| 20260501232054 | 7 | 209 | 0.0 | 0.0 | 0.00 | 0.00 | 0.00 | 80 | 1022.0 |
| 20260501231600 | 7 | 209 | 0.0 | 0.0 | 0.00 | 0.00 | 0.00 | 80 | 1022.0 |
| 20260501231049 | 8 | 209 | 0.0 | 0.0 | 0.00 | 0.00 | 0.00 | 80 | 1022.0 |
| 20260501230549 | 8 | 209 | 0.0 | 0.0 | 0.00 | 0.00 | 0.00 | 79 | 1022.1 |
| 20260501230048 | 8 | 209 | 0.0 | 0.0 | 0.00 | 0.00 | 0.00 | 78 | 1022.2 |
| 20260501225547 | 8 | 209 | 0.0 | 0.0 | 0.00 | 0.00 | 0.00 | 78 | 1022.2 |
| 20260501225045 | 8 | 209 | 0.0 | 0.0 | 0.00 | 0.00 | 0.00 | 77 | 1022.2 |
| 20260501224547 | 8 | 209 | 0.0 | 1.6 | 0.00 | 0.00 | 0.00 | 77 | 1022.4 |
| 20260501224043 | 8 | 209 | 0.0 | 3.2 | 0.00 | 0.00 | 0.00 | 77 | 1022.4 |
| 20260501223545 | 8 | 209 | 0.0 | 3.2 | 0.00 | 0.00 | 0.00 | 76 | 1022.5 |
| 20260501223042 | 8 | 209 | 0.0 | 3.2 | 0.00 | 0.00 | 0.00 | 76 | 1022.5 |
| 20260501222540 | 9 | 209 | 0.0 | 3.2 | 0.00 | 0.00 | 0.00 | 75 | 1022.5 |
| 20260501222040 | 9 | 209 | 0.0 | 1.6 | 0.00 | 0.00 | 0.00 | 75 | 1022.5 |
| 20260501221554 | 9 | 209 | 0.0 | 3.2 | 0.00 | 0.00 | 0.00 | 74 | 1022.5 |
| 20260501221040 | 10 | 209 | 0.0 | 1.6 | 0.00 | 0.00 | 0.00 | 73 | 1022.6 |
| 20260501220534 | 10 | 209 | 0.0 | 3.2 | 0.00 | 0.00 | 0.00 | 72 | 1022.6 |
| 20260501220041 | 10 | 209 | 0.0 | 3.2 | 0.00 | 0.00 | 0.00 | 71 | 1022.6 |
| 20260501215532 | 11 | 209 | 0.0 | 1.6 | 0.00 | 0.00 | 0.00 | 71 | 1022.7 |
| 20260501215032 | 11 | 209 | 0.0 | 3.2 | 0.00 | 0.00 | 0.00 | 70 | 1022.6 |
| 20260501214532 | 11 | 209 | 0.0 | 3.2 | 0.00 | 0.00 | 0.00 | 70 | 1022.7 |
| 20260501214033 | 11 | 209 | 0.0 | 3.2 | 0.00 | 0.00 | 0.00 | 69 | 1022.7 |
| 20260501213530 | 12 | 205 | 0.0 | 4.8 | 0.00 | 0.00 | 0.00 | 69 | 1022.7 |
| 20260501213036 | 11 | 197 | 1.6 | 4.8 | 0.00 | 0.00 | 0.00 | 70 | 1022.7 |
| 20260501212529 | 12 | 236 | 0.0 | 3.2 | 0.00 | 0.00 | 0.00 | 69 | 1022.8 |